EXPRESS-AM7

Last updated on Wed Mar 11 2026 00:02:53 GMT+0000 (Coordinated Universal Time)

1 40505U 15012A 26069.51163681 .00000152 00000+0 00000+0 0 9993 2 40505 0.0182 153.2748 0002988 184.2823 54.7860 1.00271326 40019
UTC large
Height (km)
Speed (km/s)
/
Latitude / Longitude
Inclination (degrees)
Orbital Period (minutes)
Azimuth
Elevation
Range (km)
Doppler Factor

Next 0 passes for location: London (51.5072 / 0.1276)

Sorry there are no passes over London.